GFSSW_sfc_temp_000.txt.gz
Temp
63 63 63 64 64 65 65 65 65 65 65 65 65 64 65 65 66 77 77 77 76 71 70 77 78 77 77 73 72 71 69 65 65 62 67 68 67 66 65 66 64 67 65 65 69
62 62 63 63 64 64 64 64 64 64 65 65 64 64 64 65 77 77 76 74 72 71 76 78 75 76 76 71 72 72 67 67 70 70 68 68 68 69 66 65 64 65 66 61 65
61 62 62 62 63 64 64 64 63 64 64 64 64 64 64 68 76 78 73 73 72 73 76 76 76 76 71 71 69 67 67 68 69 70 69 68 65 69 67 65 71 70 72 62 62
60 60 61 61 62 63 63 63 63 63 64 64 64 63 63 77 68 76 70 71 70 76 76 74 75 72 69 67 67 65 67 67 67 66 65 65 66 64 66 73 70 72 70 64 61
59 59 60 60 61 62 63 63 63 63 63 63 63 63 72 74 75 75 68 70 75 75 74 74 73 70 68 68 65 64 66 65 67 64 65 62 64 66 65 72 73 65 63 63 63
59 59 59 59 60 61 62 63 63 63 63 63 63 63 76 68 73 74 73 72 74 75 71 73 73 71 68 66 65 66 63 66 64 64 64 61 65 60 69 65 66 63 64 65 64
60 59 59 59 60 61 61 62 62 62 62 63 64 70 72 75 75 74 72 70 69 73 71 68 71 70 68 63 63 62 62 66 64 63 63 61 60 60 72 61 64 62 64 63 63
59 59 59 59 59 60 61 61 61 62 62 63 64 73 71 70 75 72 72 69 70 70 69 67 69 66 66 63 62 60 59 59 64 61 60 61 59 71 70 63 65 67 65 61 61
59 59 59 59 59 59 60 61 60 62 63 63 71 73 70 68 69 70 73 70 67 67 67 67 68 64 62 63 62 59 60 58 59 62 60 60 60 66 65 61 63 68 67 62 60
60 59 59 59 59 60 60 60 62 63 66 68 72 69 68 67 67 67 70 69 67 65 66 66 65 64 62 63 56 61 57 59 57 61 57 57 57 65 69 64 64 68 70 63 59
60 60 59 59 60 60 61 70 74 70 70 70 69 67 66 66 67 65 67 68 67 66 63 60 62 60 66 66 66 60 58 58 64 57 56 57 57 62 66 65 65 66 68 64 60
60 61 60 60 60 60 60 66 62 60 62 63 61 61 63 66 63 62 67 65 63 61 58 58 57 67 59 59 57 56 56 58 60 53 51 54 52 58 61 63 65 66 69 66 61
60 60 60 60 59 60 57 57 55 57 59 61 62 62 62 64 61 61 64 61 61 56 56 59 64 54 56 53 53 55 55 58 54 52 51 49 52 53 59 58 61 63 64 65 60
60 60 59 60 58 57 58 54 55 56 55 56 58 60 58 60 57 57 60 61 57 57 54 57 58 55 53 55 55 52 57 53 50 49 49 50 45 57 59 57 60 65 62 59 58
59 59 59 60 57 56 54 54 55 58 40 57 56 61 57 57 55 54 59 59 56 54 55 58 50 50 51 55 55 54 50 49 48 48 42 50 42 56 48 52 60 67 66 61 61
58 59 58 57 57 56 54 54 57 53 38 53 55 52 52 52 52 53 55 59 57 53 52 54 53 53 56 48 50 48 49 46 44 45 38 51 47 54 56 58 62 67 65 61 58
58 58 57 59 56 53 54 58 50 43 51 52 53 50 50 50 49 50 49 49 51 47 48 51 51 51 51 50 49 50 50 45 42 38 41 45 41 52 59 63 62 68 69 61 59
58 57 57 59 53 54 56 54 40 51 52 53 51 48 50 51 51 48 47 49 50 49 48 50 49 46 52 56 55 47 52 44 34 40 45 36 38 55 60 64 66 59 59 56 57
57 56 53 56 53 55 51 43 49 55 55 50 47 46 49 49 51 48 49 52 54 52 51 48 50 46 46 49 53 45 43 51 41 29 34 50 57 57 53 54 54 55 57 58 57
54 51 51 55 55 52 44 47 55 58 52 53 51 54 52 55 47 48 50 53 54 52 60 55 46 46 43 48 46 45 49 41 43 34 34 46 50 52 55 56 54 52 55 59 58
54 47 51 53 55 45 39 46 54 55 56 54 55 55 54 55 51 51 54 55 55 51 53 53 49 45 44 43 46 42 43 43 44 40 38 37 47 56 55 60 56 58 61 62 59
51 43 50 53 40 41 39 49 48 50 51 53 53 55 56 54 50 50 51 55 59 51 45 51 47 45 49 45 44 50 49 49 41 38 40 43 45 58 58 59 58 60 57 59 59
47 45 49 51 37 37 43 43 45 49 51 51 51 52 54 52 45 52 55 57 53 52 48 47 41 37 44 40 40 42 45 46 50 46 40 36 42 63 64 59 56 57 58 57 56
47 39 41 43 45 43 41 42 41 46 47 47 45 46 43 45 50 51 48 49 49 52 46 50 41 43 41 48 45 41 43 44 45 40 41 42 47 56 59 59 63 61 55 57 58
48 41 41 33 36 40 43 43 41 40 46 48 44 45 45 42 47 45 49 52 44 45 47 48 39 42 45 49 49 47 47 45 40 44 42 47 49 54 58 59 61 63 62 60 60
45 40 41 40 42 39 39 39 39 44 46 44 42 46 47 43 44 43 47 46 45 40 43 42 38 41 36 44 42 40 45 46 46 45 46 46 44 56 59 60 59 59 59 57 58
48 50 43 39 38 36 36 38 41 44 47 50 49 45 43 45 47 51 53 50 44 42 40 37 35 32 29 38 38 31 35 40 43 48 48 41 50 57 55 55 55 57 57 54 55

GFSSW_sfc_temp_003.txt.gz
Temp
63 63 64 64 64 64 65 65 65 64 65 65 65 65 65 65 66 78 79 81 80 72 70 83 82 83 82 79 78 78 70 68 70 69 73 75 72 75 74 75 72 74 74 71 76
62 62 63 63 63 64 64 64 64 64 64 65 65 64 65 65 80 80 78 74 74 72 80 80 80 80 80 77 77 74 69 71 76 77 74 75 73 77 69 71 72 72 75 68 71
61 61 62 62 62 63 64 64 63 63 64 64 64 64 64 69 78 83 72 73 73 73 82 83 82 80 76 77 76 74 69 75 76 76 75 74 73 76 71 70 77 75 77 69 69
60 60 60 61 61 62 63 63 63 63 64 64 64 63 64 80 69 80 71 71 71 82 81 80 79 75 73 71 76 68 75 74 74 72 70 70 74 71 71 75 77 79 81 74 67
60 60 59 60 60 61 62 62 63 63 63 63 63 63 74 77 79 77 69 71 79 79 79 79 77 77 72 74 72 68 74 73 74 70 69 71 67 70 73 79 81 78 71 73 69
60 59 59 59 60 61 61 62 62 62 62 63 63 62 78 70 78 81 78 76 80 80 78 79 78 78 74 72 69 71 70 72 73 71 70 65 69 67 74 78 78 77 73 71 71
60 59 59 59 60 60 61 61 62 61 62 62 63 74 77 78 80 80 77 75 75 78 76 75 77 74 74 71 72 68 64 72 73 70 67 67 61 65 74 75 73 73 73 72 72
60 59 59 59 59 60 60 61 61 61 61 63 64 77 74 75 82 76 78 74 75 76 75 73 75 73 71 69 69 65 66 62 74 68 66 65 61 75 82 74 69 73 76 72 72
59 59 59 59 59 59 60 60 60 62 63 63 71 76 74 69 72 77 79 74 73 72 71 72 73 71 66 65 65 66 60 64 69 68 67 62 63 74 76 73 72 74 76 76 73
60 59 59 59 59 59 60 61 64 63 67 73 76 71 73 71 70 72 75 75 71 69 69 68 70 66 66 65 57 63 64 66 64 68 63 62 60 69 73 73 72 74 76 76 77
61 60 60 60 60 60 63 76 75 72 71 74 73 75 71 69 70 68 72 71 72 70 64 67 63 62 69 71 68 66 63 62 68 72 62 61 62 66 71 72 71 72 74 76 76
60 61 61 60 60 60 64 71 64 61 63 74 71 68 71 72 66 66 71 66 65 62 68 60 58 69 72 64 65 65 59 60 67 69 57 59 58 65 68 68 70 70 71 74 76
60 60 60 59 60 63 64 64 63 64 61 69 69 69 70 67 66 69 66 67 64 62 64 59 68 64 62 63 58 60 58 61 61 65 60 56 54 61 67 68 68 68 70 72 72
60 59 59 59 59 64 64 61 63 63 57 63 62 64 62 63 59 60 65 65 62 61 65 63 68 64 59 58 63 54 65 62 58 54 50 57 46 59 64 67 66 65 71 75 68
59 59 59 59 62 62 59 62 62 63 42 62 58 64 60 60 59 55 61 60 59 60 59 62 59 54 55 59 63 58 56 56 55 52 52 53 48 56 58 59 61 66 70 75 68
58 59 58 61 63 62 60 61 60 55 42 57 60 56 54 55 55 55 57 62 60 59 58 58 57 58 60 53 56 55 54 52 51 51 42 54 53 54 60 62 66 69 72 75 67
58 58 58 65 61 60 60 60 52 46 59 57 58 55 57 56 54 52 51 50 52 48 51 58 56 58 56 53 53 53 52 46 44 40 40 60 51 58 65 67 68 70 72 72 65
58 57 57 64 63 60 59 55 43 56 59 61 58 55 53 60 55 53 53 52 55 56 53 54 50 53 55 57 60 50 55 46 36 40 46 44 44 57 69 72 70 71 70 68 65
57 56 54 58 59 59 51 42 51 58 64 62 54 53 55 55 56 55 53 58 62 56 51 53 52 51 55 55 59 52 44 57 45 39 38 50 58 66 66 65 65 63 63 64 63
55 53 53 58 55 52 41 45 57 65 64 62 54 59 54 58 51 54 57 64 59 60 63 60 49 56 46 50 52 52 55 45 46 34 35 47 50 53 59 60 62 60 60 65 65
54 47 53 53 52 43 33 39 54 63 64 56 56 57 59 59 61 57 57 65 65 60 59 58 52 50 47 45 52 45 46 47 48 48 39 38 47 63 61 63 65 65 65 67 66
51 44 51 53 40 39 36 45 51 54 60 53 58 56 58 60 58 58 57 62 67 59 50 54 48 43 51 61 57 56 53 53 42 41 46 45 46 63 63 62 63 64 65 69 67
48 46 50 51 38 37 42 46 50 51 52 52 50 54 55 51 46 56 59 66 67 57 54 51 42 37 43 47 45 46 51 52 53 48 41 37 44 65 66 67 69 63 65 63 61
48 40 42 44 46 43 39 42 43 51 49 50 44 47 46 42 45 43 45 55 54 55 47 51 45 43 41 47 54 47 47 48 48 41 41 43 48 57 60 62 65 67 67 66 64
47 44 44 36 38 41 42 42 41 41 49 51 44 43 41 37 39 38 44 46 49 45 47 46 36 42 46 51 53 51 50 48 44 46 42 46 49 55 60 61 64 67 67 65 65
41 43 42 43 47 40 39 38 39 45 46 46 43 46 45 40 42 43 45 44 43 42 41 45 33 36 32 40 41 40 45 47 47 48 48 48 47 58 61 63 61 62 63 61 61
46 44 37 37 38 37 39 41 41 46 49 51 50 49 45 46 50 51 52 51 47 40 36 35 33 32 28 38 35 30 37 43 46 50 49 42 51 59 58 59 59 60 61 59 60

GFSSW_sfc_temp_006.txt.gz
Temp
63 63 63 64 64 64 65 65 65 64 64 65 65 64 65 65 66 75 75 79 77 71 70 80 78 78 77 73 72 69 56 55 61 60 61 66 63 66 63 60 62 67 61 61 66
61 62 62 63 63 63 64 64 64 64 64 64 64 64 64 64 75 76 77 73 72 71 77 76 75 76 70 70 68 62 56 60 65 67 63 66 65 65 60 61 62 63 64 65 63
61 61 61 61 62 63 63 63 63 63 64 64 64 64 64 65 73 76 72 73 72 73 79 79 78 75 68 70 67 65 58 67 66 68 68 66 65 68 62 59 65 64 65 60 60
61 61 61 61 61 62 62 63 63 63 63 63 63 63 63 75 62 74 71 72 72 77 78 76 74 67 65 64 71 59 68 69 68 66 63 61 65 64 64 66 67 64 64 61 61
60 60 60 60 61 61 62 62 62 62 62 63 63 63 69 71 73 73 68 70 77 76 74 73 71 69 64 68 66 62 64 69 69 65 62 65 61 61 62 68 71 71 66 61 61
60 60 59 60 60 61 61 62 62 62 62 62 63 62 71 65 76 78 75 72 77 75 74 73 71 70 66 66 63 63 63 64 67 66 64 60 59 60 63 68 68 69 63 62 62
60 59 59 59 60 60 61 61 62 61 62 62 63 69 72 71 78 77 75 72 71 73 72 72 71 66 67 63 65 63 56 61 64 64 61 61 54 56 65 65 64 65 65 64 64
60 59 59 59 59 60 60 61 61 61 61 63 63 71 66 73 75 75 75 71 72 72 70 69 68 66 63 64 63 55 56 50 62 65 59 58 49 61 67 65 64 62 62 64 64
60 59 59 59 59 60 60 60 60 61 63 63 66 68 66 69 70 74 74 71 70 70 67 72 66 62 60 54 52 56 48 52 58 63 57 54 50 63 64 61 61 61 62 64 65
60 60 60 59 60 60 60 61 64 63 64 71 74 64 67 67 67 70 70 71 67 65 64 62 60 55 54 53 44 49 49 56 55 58 56 51 51 59 62 62 62 65 66 67 67
60 60 60 60 60 60 60 66 66 62 68 66 67 68 69 67 68 66 69 67 66 62 54 59 52 50 55 59 60 59 55 53 60 63 55 53 55 59 62 63 62 64 66 66 64
60 60 60 60 60 60 60 63 56 56 54 69 69 69 71 69 63 64 69 60 59 53 57 53 49 59 62 61 56 54 52 53 60 61 54 52 52 57 59 61 64 64 65 65 61
60 59 59 59 60 61 62 59 62 62 53 63 68 67 65 65 61 62 63 61 56 53 56 53 57 62 59 55 54 53 49 51 52 55 50 46 45 50 55 61 62 62 65 62 61
60 59 59 59 57 63 59 61 62 61 47 57 59 61 61 61 56 61 63 60 58 54 56 55 62 60 56 54 56 49 56 54 53 46 38 48 40 49 53 57 58 61 63 60 59
59 59 59 59 58 59 58 62 61 57 35 59 56 62 59 56 55 53 59 56 53 53 53 52 51 50 49 53 56 50 49 47 46 42 39 41 38 46 55 52 55 59 63 63 61
58 58 59 60 60 61 61 60 57 47 34 54 56 53 52 53 52 53 54 56 54 51 53 53 53 51 52 50 49 50 46 45 42 40 32 43 43 42 48 53 55 58 61 61 55
58 58 57 64 58 60 59 56 45 38 57 52 53 54 52 51 51 49 47 45 45 40 42 48 50 49 51 47 46 45 42 31 29 27 35 47 41 51 53 57 59 59 61 59 55
57 57 56 61 60 58 54 48 36 51 54 58 55 53 50 54 52 49 47 44 48 47 44 43 43 48 50 51 47 42 44 31 24 33 40 37 35 47 58 61 61 62 62 56 53
57 56 54 57 58 55 45 33 41 52 58 57 58 49 49 52 53 49 46 49 52 51 45 44 45 46 49 49 52 43 38 46 34 26 27 42 47 53 55 57 57 56 55 52 52
55 53 52 59 56 50 39 37 44 57 58 57 48 53 49 52 47 48 49 53 52 54 58 50 44 49 43 45 44 43 46 35 34 22 21 40 41 46 53 58 53 50 52 52 52
53 49 53 57 54 44 33 36 47 56 57 51 49 47 50 51 54 52 51 57 56 55 56 49 46 43 43 39 42 37 37 40 42 36 26 31 40 49 51 52 53 52 53 54 53
51 44 51 54 41 41 37 42 49 50 56 51 45 45 44 46 45 49 50 56 57 53 47 50 44 35 45 51 46 48 45 47 38 36 33 39 41 57 54 53 54 54 57 57 56
47 47 50 51 39 38 41 44 48 48 49 49 47 47 49 45 38 42 47 55 53 51 41 45 37 29 35 44 42 40 44 48 47 43 38 33 40 59 62 59 56 54 55 55 56
45 40 43 44 45 42 40 39 40 49 47 49 48 48 43 40 45 42 41 48 50 50 45 45 37 34 32 39 45 39 42 43 44 37 38 39 42 51 56 57 60 60 61 55 53
43 41 44 36 38 41 43 41 39 39 48 50 45 45 43 37 41 40 43 45 46 47 44 41 30 33 38 41 40 38 40 43 41 42 36 42 44 50 55 56 58 61 61 59 56
38 39 40 40 42 40 40 38 38 43 45 43 42 46 46 41 43 42 41 42 41 41 42 40 32 32 30 35 36 34 39 41 40 42 43 45 43 55 58 59 58 59 60 58 57
45 43 37 37 38 36 38 39 38 41 42 44 44 44 43 46 50 51 52 51 49 44 37 34 32 31 28 35 32 28 33 37 40 44 43 38 46 55 54 56 57 59 59 58 56

GFSSW_sfc_temp_009.txt.gz
Temp
63 63 63 63 63 64 64 64 64 64 64 64 64 64 64 64 65 67 67 75 73 71 70 72 70 69 67 64 65 62 50 46 53 54 56 59 58 60 61 58 59 64 59 59 59
62 62 63 63 63 63 63 64 63 63 63 64 64 64 64 64 66 67 75 72 72 71 73 70 67 68 60 62 62 55 47 53 59 58 57 60 60 60 56 56 57 58 56 58 59
62 62 62 62 62 63 63 63 63 63 63 63 63 63 63 62 64 69 72 72 72 71 72 71 70 68 59 61 60 57 52 59 62 62 60 60 57 62 58 55 59 60 59 56 55
61 61 61 61 62 62 62 62 62 62 63 63 63 63 61 64 56 68 71 72 71 72 70 69 66 61 57 57 64 55 62 62 63 63 60 57 61 60 59 64 65 63 63 57 54
60 60 60 60 61 61 62 62 62 62 62 62 63 62 63 59 65 69 68 69 70 71 69 67 63 61 56 58 60 57 58 62 63 62 61 60 58 57 57 61 64 65 62 58 57
61 60 60 60 60 61 61 62 62 62 62 62 62 61 60 56 70 70 69 68 70 68 67 67 65 65 60 59 56 57 58 58 60 61 60 58 54 57 59 61 61 63 61 57 59
61 59 59 59 60 60 61 61 62 61 61 62 63 64 60 64 71 69 70 67 67 67 65 66 64 62 59 57 59 58 55 56 60 58 57 57 53 53 64 59 61 60 60 60 58
61 59 59 59 60 60 61 61 61 61 61 62 63 60 60 68 66 69 68 65 66 67 65 64 65 62 58 59 58 50 48 45 56 56 56 58 49 58 61 56 57 60 57 58 58
60 59 59 59 59 60 60 61 60 61 62 63 57 57 59 67 65 68 68 65 65 63 62 70 63 57 54 49 45 45 42 44 51 58 53 52 49 56 60 56 58 55 55 59 62
60 60 60 60 60 60 60 61 61 61 62 65 68 56 62 62 64 66 65 66 62 61 60 58 54 50 47 45 41 41 41 47 47 51 50 47 50 57 57 55 56 56 56 56 60
60 60 60 60 60 61 58 54 58 56 56 59 58 59 62 61 64 61 64 63 61 57 51 53 46 44 53 51 51 49 46 45 54 58 53 54 52 57 60 55 55 57 60 63 64
60 60 60 60 60 60 55 54 50 50 47 58 61 62 65 63 59 59 65 57 55 49 51 47 44 55 55 53 51 49 47 47 55 56 51 51 52 57 54 57 60 60 60 62 64
60 59 59 59 60 57 54 51 57 54 44 54 60 61 61 62 58 58 61 57 52 48 49 50 52 56 54 51 49 51 47 49 48 52 48 45 43 49 53 55 59 62 61 63 63
59 59 59 59 56 54 51 56 56 52 39 49 55 56 57 58 53 57 59 57 52 50 48 48 56 55 49 49 52 49 52 52 48 41 40 43 38 45 50 51 53 58 59 60 54
59 59 59 60 52 52 55 56 54 51 29 51 52 59 54 54 51 51 54 52 47 48 49 49 48 46 48 52 52 50 48 46 42 38 35 39 35 42 50 48 54 60 60 61 57
58 58 59 57 52 55 56 54 52 42 29 48 50 48 48 48 48 50 50 53 50 46 48 47 48 50 50 47 50 48 43 42 39 36 32 38 40 44 44 50 52 58 59 62 61
58 57 57 62 55 57 57 54 42 31 50 47 48 47 46 45 46 46 43 41 41 37 37 43 47 47 50 44 44 43 39 29 27 24 32 43 36 49 50 53 56 59 59 61 54
57 57 56 59 58 57 53 44 31 44 48 52 51 46 46 48 47 44 41 38 42 43 39 38 42 45 48 50 44 39 41 29 23 31 39 36 31 42 54 57 57 58 62 55 51
56 55 54 56 55 55 46 34 39 43 51 51 53 46 42 46 48 43 39 39 45 48 41 38 42 44 44 45 49 40 37 45 32 17 24 40 43 49 51 53 53 55 49 52 50
54 53 52 57 56 50 41 41 43 51 53 53 45 46 40 46 45 44 41 45 47 48 56 49 40 47 42 43 43 41 44 33 31 22 18 38 34 45 51 57 59 50 50 50 49
52 49 52 55 54 44 36 39 45 51 52 48 46 45 46 42 46 45 42 48 51 52 50 47 45 44 41 38 39 38 37 40 39 31 33 32 40 48 47 51 52 49 50 50 51
50 43 51 55 42 41 40 42 48 48 51 50 49 48 45 45 44 45 44 47 54 51 42 43 40 32 41 45 45 44 43 44 37 33 30 36 40 60 52 52 51 52 52 48 51
44 44 50 50 39 40 40 42 46 46 46 47 46 48 50 44 39 43 43 51 54 49 41 42 34 28 33 43 39 41 42 45 44 37 33 29 34 57 57 58 59 51 51 53 55
41 37 43 44 45 43 42 41 40 46 45 46 46 47 44 41 44 42 42 47 48 49 47 45 33 32 31 40 44 37 38 41 43 35 37 36 39 48 52 54 58 59 61 61 58
39 35 40 34 39 41 42 42 41 41 46 48 43 43 42 38 40 41 44 44 47 46 43 41 31 33 36 39 41 39 39 39 37 39 34 38 40 46 51 53 56 59 60 59 52
34 34 38 36 39 39 40 39 39 41 40 40 38 41 41 36 38 36 40 41 41 39 42 42 34 35 32 35 34 32 37 38 38 39 39 41 42 53 56 57 56 57 58 56 57
39 42 37 33 31 33 35 39 39 40 39 41 36 34 33 37 41 39 39 39 39 38 38 38 33 33 30 34 33 28 34 37 38 42 41 35 44 53 52 53 54 56 57 56 57